NIMBUS 2

Satellite information

Favourite Embed

Satellite Type and Status

PAYLOADIN ORBIT

Key statistics

Satellite NIMBUS 2 at a glance.

Uptime

21762

Days in orbit

Revolutions

≈ 13.3

Per day

Orbit

SSO

Sun Synchronous Orbit

Inclination

100.5

Latest

Satellite identification and parameters

Extended collection of information and parameters for NIMBUS 2.

Object identification

Identified? True

Debris? False

Object name: NIMBUS 2

International designator: 1966-040A

Object number (NORAD): 2173

Object ID (CCSDS): 2173

Country: UNITED STATES OF AMERICA (US)

Current information (Y/N): Y

RCS size: LARGE

Orbital parameters

Period: 107.97 minutes

Inclination: 100.5485 deg

SMA: 7510.943 km

Apoapsis: 1174.524 km

Periapsis: 1091.093 km

RAAN: 194.5496 deg

Eccentricy: 0.005554

Argument of periapsis: 15.3955 deg

Mean anomaly: 105.0848 deg

Mean motion: 13.33708867 rev/day

Mean motion (dot): -0.00000032 rev/day2

B* drag term: 0.000030879711 1/REarth

Two-line elements (TLE)

Creation date: Dec. 12, 2025, 10:14 a.m.

Reference frame: TEME

Reference center: EARTH

Epoch: Dec. 12, 2025, 5:54 a.m. UTC

TLE line 0: 0 NIMBUS 2

TLE line 1: 1 02173U 66040A 25346.24646259 -.00000032 00000-0 30880-4 0 9996

TLE line 2: 2 02173 100.5485 194.5496 0055540 15.3955 105.0848 13.33708867898707

Live tracking on map

Real-time ground track for satellite NIMBUS 2.

In-orbit conjunctions

A list of the most updated potential collisions computed for object NIMBUS 2.

Target Orbit TCA Probability of collision Miss distance Type
FENGYUN 1C DEB SSO 2024-11-09 20:46:45 0.0006460088 161.0 (m) DEBRIS
FENGYUN 1C DEB SSO 2024-07-31 03:09:42 0.0007665155 141.0 (m) DEBRIS
SL-14 DEB LEO 2024-05-28 19:59:19 0.0001199893 616.0 (m) DEBRIS

Associated space launch

Nimbus 2, the second in a series of second-generation meteorological research-and-development satellites, added an additional medium-resolution infrared radiometer (MRIR) compared to Nimbus 1.

NIMBUS 2 was lifted into orbit during the mission ‘Thor SLV-2A Agena B | Nimbus 2’, on board a Thor SLV-2A Agena B space rocket.

The launch took place on May 15, 1966, 7:55 a.m. from Space Launch Complex 2E.

For more information about the launch, click the button.

Launch to space Thor SLV-2A Agena B | Nimbus 2
Thor SLV-2A Agena B | Nimbus 2

Agency: N/A

Status: Launch Successful

Launch date: May 15, 1966, 7:55 a.m. UTC

Rocket: Thor SLV-2A Agena B

Launch pad: Space Launch Complex 2E

Location: Vandenberg SFB, CA, USA

...

Latest news about this satellite

There are no fresh news available about this satellite. Check back as we update our databases every day.


Newsletter sign-up

Weekly statistics, charts and insights to help you stay on top of the space industry.